Location: Grevenbroich
(51.0902°N, 6.5859°E)
Time: 01:11:33
(UTC+01:00)

ISS - Pass Details

Date: 13 February 2026
Orbit: 416 x 427 km, 51.6° (Epoch: 7 March)

Event Time Altitude Azimuth Distance (km) Brightness Sun altitude
Rises 07:01:48 0° 218° (SW) 2,350 -0.2 -8.2°
Reaches altitude 10° 07:04:05 10° 206° (SSW) 1,489 -1.1 -7.8°
Maximum altitude 07:06:56 26° 147° (SSE) 850 -1.6 -7.4°
Drops below altitude 10° 07:09:48 10° 88° (E) 1,493 0.6 -7.0°
Sets 07:12:02 0° 76° (ENE) 2,334 1.3 -6.6°
